Location: Berlin
(42.3812°N, 71.6370°W)
Time: 20:59:26
(UTC+00:00)

Okean 2 Rocket - Pass Details

Date: 15 November 2025
Orbit: 611 x 635 km, 82.5° (Epoch: 11 December)

Event Time Altitude Azimuth Distance (km) Brightness Sun altitude
Rises 00:02:01 0° 204° (SSW) 2,892 6.8 -29.0°
Reaches altitude 10° 00:04:21 10° 212° (SSW) 1,986 6.0 -29.4°
Enters shadow 00:07:58 39° 263° (W) 931 4.3 -30.1°
